Regional Weather Roundup
Issued by NWS

Home | Current Version | Previous Version | Text Only | Print | Product List | Glossary On
Versions: 1 2 3 4 5 6 7 8 9 10 11 12 13 14 15 16 17 18 19 20 21 22 23 24 25 26 27 28 29 30 31 32 33 34 35 36 37 38 39 40 41 42 43 44 45 46 47 48 49 50
000
ASUS46 KSTO 281315
RWRCA

NORTHERN AND CENTRAL CA REGIONAL WEATHER ROUNDUP
NATIONAL WEATHER SERVICE SACRAMENTO CA
600 AM PDT TUE MAR 28 2017

NOTE: FAIR INDICATES FEW OR NO CLOUDS BELOW 12,000 FEET WITH NO
SIGNIFICANT WEATHER AND/OR OBSTRUCTIONS TO VISIBILITY.

CAZ001-003-281400-
NORTHWEST AREA

CITY           SKY/WX    TMP DP  RH WIND       PRES   REMARKS
CRESCENT CITY  MOCLDY    45  42  89 E3        30.39S
UKIAH          CLEAR     40  38  93 CALM      30.28S
$$

CAZ006-505>513-281400-
BAY AREA

CITY           SKY/WX    TMP DP  RH WIND       PRES   REMARKS
SANTA ROSA     CLEAR     46  41  82 N8        30.23R
SAN RAFAEL     N/A       49  MM  MM MISG
NAPA           CLEAR     43  40  89 NW6       30.22R
CONCORD        CLEAR     46  43  89 SE5       30.21S
OAKLAND CITY   N/A      MM  MM  MM MISG
OAKLAND        CLEAR     49  45  86 N3        30.22R
SAN FRAN CITY  N/A       51  MM  76 MISG
SAN FRAN ARPT  PTCLDY    51  46  83 W9        30.21S
LIVERMORE      CLEAR     43  40  89 E3        30.21S
HAYWARD        CLEAR     48  40  73 E5        30.21S
REDWOOD CITY   N/A       44  MM  92 MISG
MOFFETT ARPT   CLEAR     50  44  80 CALM      30.23R
SAN JOSE ARPT  CLEAR     47  43  86 S3        30.22S
$$
CAZ034-037-514>518-281400-
CENTRAL COAST

CITY           SKY/WX    TMP DP  RH WIND       PRES   REMARKS
WATSONVILLE    CLEAR     44  44 100 NW5       30.21R
SALINAS        CLEAR     48  45  89 N5        30.20S
MONTEREY       CLEAR     47  43  86 CALM      30.20F
SAN LUIS OBISP CLEAR     54  44  69 NW13      30.15R
SANTA MARIA    CLEAR     47  44  90 W3        30.14S
$$
CAZ015-016-281400-
NORTHERN SACRAMENTO VALLEY

CITY           SKY/WX    TMP DP  RH WIND       PRES   REMARKS
REDDING        CLEAR     49  39  68 NW6       30.26S
RED BLUFF      CLEAR     47  39  74 N6        30.26R
OROVILLE       CLEAR     48  38  68 N5        30.21R
$$
CAZ016>018-281400-
SOUTHERN SACRAMENTO VALLEY

CITY           SKY/WX    TMP DP  RH WIND       PRES   REMARKS
AUBURN         CLEAR     45  34  65 CALM      30.14F
BEALE AFB      CLEAR     44  40  86 NW8       30.15F
LINCOLN        FAIR      45  39  81 N6        30.15F
MARYSVILLE     CLEAR     50  41  71 NW15      30.18F
SAC INTL ARPT  CLEAR     50  43  77 W13       30.17S
MATHER AIRPORT CLEAR     46  41  81 N5        30.16S
DOWNTOWN SAC   N/A       51  MM  MM MISG
SAC EXEC ARPT  CLEAR     51  42  71 NW9       30.16F
VACAVILLE      CLEAR     56  37  49 NW10      30.20R
TRAVIS AFB     CLEAR     50  45  81 W9        30.21S
$$
CAZ019>021-281400-
SAN JOAQUIN VALLEY

CITY           SKY/WX    TMP DP  RH WIND       PRES   REMARKS
STOCKTON       CLEAR     51  42  71 NW9       30.16F
MODESTO        CLEAR     50  43  77 NW7       30.16S
MERCED         CLEAR     45  41  86 NW8       30.16R
LEMOORE        CLEAR     45  40  82 N6        30.17R
FRESNO         CLEAR     44  42  93 CALM      30.17R
HANFORD        CLEAR     42  42 100 CALM      30.16R
PORTERVILLE    CLEAR     41  39  93 SE7       30.17R
BAKERSFIELD    CLEAR     48  42  80 E5        30.17R
$$
CAZ011-012-071-281400-
NORTHERN MOUNTAINS

CITY           SKY/WX    TMP DP  RH WIND       PRES   REMARKS
YREKA          CLOUDY    34  32  92 CALM      30.35S
MOUNT SHASTA   PTCLDY    38  31  76 NW8       30.28S WCI  32
ALTURAS        PTCLDY    28  25  88 E3        30.31R
$$
CAZ011-012-071-281400-
SIERRA NEVADA MTNS

CITY           SKY/WX    TMP DP  RH WIND       PRES   REMARKS
BLUE CANYON    CLEAR     37  17  44 E10G22    30.14F WCI  30
TRUCKEE        CLEAR     21  21 100 CALM      30.23S
TAHOE VLY ARPT CLEAR     25  22  88 S5        30.20R WCI  19
MAMMOTH LAKES  FAIR      24  15  68 W13       30.20S WCI  12
$$



USA.gov is the U.S. government's official web portal to all federal, state and local government web resources and services.